{"data":{"norad_id":62485,"epoch":"2026-09-19T17:49:34.236768Z","epoch_age_seconds":83742,"freshness":"FRESH","line1":"1 62485U 25002A   26262.74275737 -.00000351  00000+0  00000+0 0  9992","line2":"2 62485   5.3332  60.5140 0046726 179.7512 153.2654  1.00276289  6306","mean_motion":1.00276289,"eccentricity":0.0046726,"inclination_deg":5.3332,"raan_deg":60.514,"arg_perigee_deg":179.7512,"mean_anomaly_deg":153.2654,"bstar":0,"rev_number":630,"period_min":1436.0324004411,"perigee_km":35588.319346755,"apogee_km":35982.345400747,"semimajor_km":42163.469373751,"source":"CELESTRAK","updated_at":"2026-09-20T09:00:35.341604Z"}}